[[{"header":{"parameterUnit":"m.s-1","parameterCategory":1,"la1":30.2991,"la2":30.254,"lo1":-89.0895,"lo2":-89.0444,"dy":0.0017,"dx":0.0017,"nx":28,"ny":28,"refTime":"2024-04-26T09:00:00:Z","depth":0,"parameterNumber":2,"parameterNumberName":"U-component_of_WINDS"},"data":[0,0,0,0,0,0,0,0,0,0,0,0,0,0,0,0,0,0,0,0,0,0,0,0,0,0,0,0,0,0,0,0,0,0,0,0,0,0,0,0,0,0,0,0,0,0,0,0,0,0,0,0,0,0,0,0,0,0,-5.7463,-5.7464,0,-5.7577,-5.7578,-5.758,-5.7527,-5.7524,-5.7521,-5.7518,-5.7634,-5.764,-5.7645,0,0,0,0,0,0,0,0,0,0,0,0,0,-5.7196,-5.7201,-5.7462,-5.7464,-5.7465,-5.7577,-5.7579,-5.758,-5.7527,-5.7524,-5.752,-5.7517,-5.7632,-5.7639,-5.7646,0,0,0,0,0,0,0,0,0,0,0,0,0,-5.7311,-5.7203,-5.7462,-5.7452,-5.7453,-5.7577,-5.7579,-5.7581,-5.7528,-5.7524,-5.7519,-5.7515,-5.763,-5.7638,-5.7647,-5.7786,0,0,-5.7673,-5.7677,0,0,0,0,0,0,0,0,-5.7305,-5.7321,-5.7452,-5.7453,-5.7454,-5.7533,-5.7527,-5.7649,-5.7529,-5.7499,-5.7518,-5.7513,-5.7604,-5.7614,-5.7645,-5.7792,-5.7797,-5.7674,-5.7679,-5.7683,-5.7685,0,0,0,0,0,0,0,-5.7297,-5.7316,-5.7508,-5.7454,-5.7455,-5.7442,-5.7453,-5.755,-5.7574,-5.7502,-5.7498,-5.7513,-5.7603,-5.7637,-5.7648,-5.7798,-5.7674,-5.7681,-5.7687,-5.769,-5.8064,-5.8068,0,0,0,0,0,0,-5.729,-5.731,-5.7504,-5.7511,-5.7367,-5.745,-5.7463,-5.7512,-5.7573,-5.7578,-5.7516,-5.751,-5.7624,-5.7638,-5.7651,-5.7817,-5.7683,-5.7691,-5.7696,-5.8059,-5.8065,-5.807,0,0,0,0,0,0,-5.7284,-5.7307,-5.7499,-5.741,-5.7433,-5.7459,-5.7515,-5.7517,-5.755,-5.7584,-5.7588,-5.7546,-5.7622,-5.7639,-5.7753,-5.7821,-5.7695,-5.7703,-5.8054,-5.8061,-5.8068,-5.8151,0,0,0,0,0,0,-5.7277,-5.7306,-5.7359,-5.7411,-5.7438,-5.76,-5.7519,-5.7522,-5.7565,-5.7558,-5.7613,-5.7618,-5.762,-5.774,-5.7762,-5.783,-5.7709,-5.8048,-5.8057,-5.8065,-5.8142,-5.816,-5.8175,0,0,0,0,0,-5.7267,-5.7378,-5.7362,-5.7386,-5.7506,-5.7604,-5.7619,-5.7619,-5.7571,-5.7625,-5.7647,-5.7616,-5.7811,-5.7753,-5.7776,-5.7848,-5.8043,-5.8054,-5.8065,-5.8135,-5.8157,-5.8175,0,0,0,0,0,0,-5.7333,-5.7385,-5.7368,-5.7499,-5.7547,-5.7595,-5.7662,-5.7642,-5.7705,-5.7695,-5.7692,-5.7705,-5.7822,-5.7847,-5.7781,-5.7986,-5.7919,-5.7935,-5.7965,-5.7986,-5.8002,-5.7992,-5.7717,0,0,0,0,0,-5.7363,-5.7439,-5.748,-5.7591,-5.7617,-5.7636,-5.7678,-5.7674,-5.7724,-5.7744,-5.7774,-5.7823,-5.7895,-5.7942,-5.801,-5.8147,-5.8157,-5.8208,-5.8225,-5.8238,-5.8251,-5.8323,-5.8346,-5.8105,-5.8105,-5.8105,0,0,-5.7425,-5.7462,-5.751,-5.7606,-5.7642,-5.772,-5.7653,-5.7738,-5.7796,-5.7757,-5.7865,-5.789,-5.7944,-5.807,-5.8126,-5.8094,-5.832,-5.8252,-5.8262,-5.8268,-5.8337,-5.8359,-5.8379,-5.8113,-5.8111,-5.811,0,0,-5.7576,-5.7614,-5.771,-5.7749,-5.7806,-5.7818,-5.7842,-5.7893,-5.7907,-5.8017,-5.7989,-5.8057,-5.8181,-5.8221,-5.8257,-5.8426,-5.84,-5.8448,-5.8533,-5.8604,-5.8623,-5.864,-5.8698,-5.8719,-5.8462,-5.8462,-5.8462,0,-5.7646,-5.7762,-5.7762,-5.785,-5.7892,-5.7861,-5.7958,-5.7996,-5.8072,-5.8102,-5.8065,-5.822,-5.8255,-5.8388,-5.8429,-5.8461,-5.8486,-5.844,-5.8621,-5.8637,-5.8653,-5.8708,-5.873,-5.8467,-5.8467,-5.8466,-5.8466,0,-5.7844,-5.7925,-5.7996,-5.8071,-5.8122,-5.8214,-5.8226,-5.8278,-5.827,-5.8285,-5.8397,-5.8438,-5.8513,-5.8545,-5.8538,-5.8678,-5.8656,-5.862,-5.8553,-5.8681,-5.8733,-5.8754,-5.8475,-5.8473,-5.8471,-5.847,0,0,-5.8038,-5.8112,-5.8138,-5.8171,-5.8233,-5.8295,-5.8386,-5.846,-5.8503,-5.8558,-5.8632,-5.8739,-5.8706,-5.8748,-5.8745,-5.8808,-5.8936,-5.8764,-5.8766,-5.8793,-5.909,-5.9114,-5.9139,-5.8921,-5.8925,-5.8928,-5.9085,0,-5.8192,-5.8351,-5.8353,-5.8499,-5.8573,-5.8546,-5.8625,-5.8671,-5.8688,-5.8754,-5.8773,-5.8847,-5.88,-5.8825,-5.8886,-5.8908,-5.8995,-5.8897,-5.8988,-5.8991,-5.8972,-5.9166,-5.9192,-5.9338,-5.9105,-5.9109,-5.9111,0,-5.8393,-5.8454,-5.8607,-5.8657,-5.8688,-5.8759,-5.8827,-5.8891,-5.8942,-5.895,-5.8997,-5.8986,-5.9077,-5.901,-5.9135,-5.9067,-5.9106,-5.9122,-5.9128,-5.9134,-5.9057,-5.9175,-5.9385,-5.9406,-5.9143,-5.9141,-5.9139,0,-5.8516,-5.8637,-5.8743,-5.8773,-5.8835,-5.8885,-5.8913,-5.8961,-5.9005,-5.9065,-5.9093,-5.9163,-5.9201,-5.9255,-5.9262,-5.9212,-5.9387,-5.932,-5.9395,-5.9395,-5.9431,-5.9428,-5.9647,-5.946,-5.946,-5.9459,-5.9459,0,-5.8687,-5.8781,-5.8799,-5.8865,-5.8969,-5.8972,-5.9074,-5.9098,-5.9141,-5.921,-5.9192,-5.9257,-5.9264,-5.933,-5.9337,-5.9438,-5.9456,-5.9465,-5.9465,-5.9465,-5.9463,-5.9487,-5.9476,-5.9465,-5.9464,-5.9463,-5.9462,0,-5.8841,-5.8857,-5.8971,-5.9021,-5.9036,-5.911,-5.9152,-5.9215,-5.9231,-5.9318,-5.9339,-5.9365,-5.9442,-5.9456,-5.9548,-5.9552,-5.9673,-5.9664,-5.9655,-5.9653,-5.9726,-5.9718,-5.9966,-5.9997,-5.9793,-5.9795,-5.9796,0,-5.8947,-5.9018,-5.9076,-5.9121,-5.9152,-5.9225,-5.927,-5.9276,-5.9324,-5.9388,-5.9442,-5.9519,-5.9579,-5.9705,-5.9731,-5.9801,-5.9792,-5.9874,-5.9802,-5.9799,-5.979,-5.9785,-5.9791,-5.9887,-5.9889,-5.9891,-5.9892,0,-5.9133,-5.9138,-5.9204,-5.9274,-5.9328,-5.9383,-5.9435,-5.9473,-5.9485,-5.954,-5.962,-5.9667,-5.9761,-5.9836,-5.9905,-5.9934,-5.9915,-5.9915,-5.9936,-5.9935,-5.9926,-5.9929,-5.969,-5.9909,-5.9907,-5.9906,-5.9905,-5.9904,-5.9265,-5.9327,-5.9377,-5.9451,-5.9491,-5.954,-5.96,-5.9625,-5.9691,-5.9768,-5.9768,-5.9854,-5.9904,-5.9995,-6.0029,-6.0096,-6.0069,-6.01,-6.0107,-6.0114,-6.0119,-5.9918,-6.0109,-6.0109,-6.0108,-6.0108,-6.0108,0,-5.9448,-5.9479,-5.9548,-5.9621,-5.9679,-5.9658,-5.9714,-5.9764,-5.9841,-5.9889,-5.9949,-6.004,-6.0114,-6.0146,-6.0218,-6.0266,-6.0259,-6.0284,-6.0279,-6.0285,-6.014,-6.0114,-6.0288,-6.0288,-6.0288,-6.0288,-6.0288,-6.0288,-5.955,-5.9653,-5.9664,-5.9786,-5.9816,-5.9901,-5.9935,-5.998,-6.0018,-6.0121,-6.0181,-6.0203,-6.0245,-6.0319,-6.0385,-6.0393,-6.0419,-6.0448,-6.0451,-6.0314,-6.0296,-6.0278,-6.0253,-6.0454,-6.0454,-6.059,-6.0592,-6.0593]},{"header":{"parameterUnit":"m.s-1","parameterCategory":1,"la1":30.2991,"la2":30.254,"lo1":-89.0895,"lo2":-89.0444,"dy":0.0017,"dx":0.0017,"nx":28,"ny":28,"refTime":"2024-04-26T09:00:00:Z","depth":0,"parameterNumber":3,"parameterNumberName":"V-component_of_WINDS"},"data":[0,0,0,0,0,0,0,0,0,0,0,0,0,0,0,0,0,0,0,0,0,0,0,0,0,0,0,0,0,0,0,0,0,0,0,0,0,0,0,0,0,0,0,0,0,0,0,0,0,0,0,0,0,0,0,0,0,0,3.9978,3.9978,0,3.9957,3.9957,3.9956,3.9896,3.9894,3.9893,3.9892,3.9868,3.9869,3.987,0,0,0,0,0,0,0,0,0,0,0,0,0,3.9966,3.9967,3.9978,3.9978,3.9977,3.9957,3.9957,3.9956,3.9896,3.9894,3.9893,3.9891,3.9868,3.9869,3.987,0,0,0,0,0,0,0,0,0,0,0,0,0,3.9961,3.9967,3.9978,3.9945,3.9942,3.9957,3.9957,3.9956,3.9896,3.9894,3.9892,3.989,3.9868,3.9869,3.987,3.9915,0,0,3.9873,3.9873,0,0,0,0,0,0,0,0,3.9961,3.9961,3.995,3.9947,3.9944,3.9927,3.9944,3.9942,3.9897,3.9913,3.9892,3.9889,3.9889,3.9888,3.9889,3.9914,3.9913,3.9873,3.9873,3.9874,3.9874,0,0,0,0,0,0,0,3.9962,3.9962,3.9969,3.995,3.9946,3.9931,3.9928,3.9943,3.9913,3.9912,3.9907,3.9906,3.9887,3.9888,3.9888,3.9913,3.9873,3.9873,3.9874,3.9874,3.9976,3.9978,0,0,0,0,0,0,3.9967,3.9963,3.997,3.9969,3.9948,3.9933,3.993,3.9934,3.9912,3.9907,3.9907,3.9903,3.9887,3.9887,3.9887,3.9939,3.9874,3.9874,3.9875,3.9974,3.9976,3.9978,0,0,0,0,0,0,3.9967,3.9968,3.9971,3.9965,3.9964,3.9935,3.9941,3.9935,3.9935,3.9909,3.9903,3.9914,3.9886,3.9885,3.9909,3.9937,3.9875,3.9876,3.9971,3.9974,3.9977,4.0043,0,0,0,0,0,0,3.9967,3.9968,3.9985,3.9965,3.9964,3.9994,3.9943,3.9936,3.9937,3.9931,3.9913,3.9909,3.9884,3.9908,3.991,3.9937,3.9876,3.9968,3.9972,3.9976,4.0039,4.0049,4.0057,0,0,0,0,0,3.9966,4.0004,3.9986,3.9987,3.9985,3.9995,3.9995,3.9966,3.994,3.9957,3.994,3.9909,3.9934,3.9911,3.9912,3.9941,3.9966,3.9971,3.9976,4.0034,4.0047,4.0057,0,0,0,0,0,0,4.0026,4.0,3.9981,4.0013,4.0007,3.9985,4.0005,3.998,3.9981,3.9975,3.994,3.9936,3.9965,3.9955,3.993,3.9984,3.9945,3.9951,3.9989,4.0001,4.001,4.0011,3.9877,0,0,0,0,0,4.0043,4.0054,4.0031,4.0062,4.006,4.0034,4.0037,4.0016,4.0008,4.0005,3.999,3.9984,3.999,3.9995,3.9999,4.0038,4.0033,4.0058,4.0067,4.0075,4.008,4.01,4.0111,3.9994,3.9994,3.9994,0,0,4.0078,4.0065,4.0074,4.0074,4.0066,4.0079,4.0032,4.0046,4.0055,4.0007,4.0029,4.0018,4.0008,4.004,4.0053,4.0033,4.0112,4.0081,4.0087,4.0088,4.0107,4.0118,4.0128,3.9998,3.9997,3.9996,0,0,4.0148,4.014,4.0165,4.0159,4.015,4.0133,4.0139,4.0122,4.0113,4.0134,4.0099,4.011,4.0121,4.0116,4.0115,4.0187,4.0159,4.019,4.0237,4.0258,4.0267,4.0275,4.0301,4.0311,4.0195,4.0195,4.0195,0,4.0192,4.021,4.018,4.0198,4.0199,4.0158,4.0184,4.018,4.0172,4.0174,4.0152,4.0167,4.0158,4.0188,4.0206,4.0207,4.0213,4.019,4.0268,4.0276,4.0283,4.0307,4.0317,4.0198,4.0198,4.0198,4.0197,0,4.0265,4.0278,4.0299,4.0295,4.0298,4.032,4.0294,4.0302,4.0282,4.0267,4.029,4.0278,4.028,4.0286,4.0265,4.0314,4.0302,4.0275,4.0234,4.0298,4.0321,4.033,4.0204,4.0203,4.0201,4.02,0,0,4.0369,4.035,4.0358,4.0357,4.0345,4.0354,4.0375,4.0378,4.0385,4.0382,4.0399,4.0411,4.0387,4.0386,4.0365,4.0383,4.0442,4.0354,4.0353,4.037,4.0495,4.0515,4.0527,4.0424,4.0425,4.0427,4.0496,0,4.0435,4.0469,4.0445,4.0483,4.0495,4.0458,4.0476,4.0471,4.0459,4.0467,4.0453,4.0463,4.043,4.0429,4.0446,4.0431,4.0466,4.0426,4.0438,4.0439,4.0441,4.0538,4.0559,4.0625,4.0505,4.0506,4.0507,0,4.0516,4.0518,4.0558,4.0546,4.055,4.0567,4.0569,4.0578,4.0572,4.0561,4.0562,4.0537,4.0557,4.0519,4.0546,4.0519,4.0524,4.0518,4.0519,4.0519,4.0476,4.054,4.0645,4.0655,4.052,4.0519,4.0518,0,4.0588,4.0601,4.0627,4.0627,4.0613,4.0626,4.0621,4.0613,4.0617,4.0619,4.0622,4.0626,4.0628,4.0631,4.0608,4.0583,4.0639,4.0599,4.0631,4.0632,4.0643,4.0642,4.075,4.0647,4.0647,4.0647,4.0647,0,4.0664,4.069,4.066,4.0676,4.0704,4.0677,4.0706,4.0697,4.0691,4.0705,4.0673,4.0686,4.0655,4.0666,4.0648,4.0674,4.0675,4.0667,4.0662,4.067,4.0671,4.0671,4.0666,4.0649,4.0649,4.0648,4.0648,0,4.0749,4.073,4.0756,4.0742,4.0739,4.076,4.0748,4.0763,4.0749,4.0767,4.077,4.0748,4.0759,4.0738,4.0745,4.0733,4.077,4.0757,4.0772,4.0768,4.0802,4.0799,4.0913,4.0927,4.0815,4.0816,4.0817,0,4.0798,4.0817,4.0806,4.0814,4.0811,4.0823,4.0828,4.0802,4.0808,4.0805,4.082,4.0829,4.0834,4.0854,4.0839,4.0845,4.0833,4.0873,4.0833,4.0841,4.0833,4.0832,4.0835,4.088,4.0882,4.0883,4.0883,0,4.0888,4.0878,4.0886,4.0892,4.0899,4.0902,4.0903,4.0911,4.0884,4.0893,4.0905,4.0909,4.0918,4.0928,4.0931,4.0925,4.09,4.0896,4.0904,4.0912,4.0919,4.0916,4.0793,4.0893,4.0892,4.0892,4.0891,4.0891,4.0956,4.0972,4.0968,4.0978,4.0977,4.0979,4.0992,4.0982,4.0991,4.0997,4.0982,4.0998,4.0993,4.0995,4.0993,4.1005,4.0987,4.0998,4.1001,4.1004,4.101,4.0919,4.1005,4.1005,4.1005,4.1004,4.1004,0,4.1044,4.104,4.1051,4.1054,4.1063,4.104,4.104,4.1049,4.1064,4.1062,4.1069,4.1084,4.1093,4.108,4.1088,4.11,4.1089,4.1103,4.1101,4.11,4.1025,4.1017,4.1112,4.1112,4.1112,4.1112,4.1112,4.1112,4.1091,4.1118,4.1108,4.1134,4.113,4.1145,4.1148,4.115,4.1149,4.1167,4.1175,4.1167,4.1161,4.1168,4.1176,4.1172,4.1177,4.1195,4.1187,4.1116,4.1106,4.1095,4.1088,4.1196,4.1196,4.1261,4.1262,4.1262]}]]